EW9741 Weather Reports


Display with metric or nautical units.
time (UTC)temp
F
wind
direction
speed
MPH
gust
MPH
rain 1hr
in
rain 24hr
in
rain mn
in
humidity
%
barometer
mb
20260903013010 84 218 0.0 0.0 0.00 0.00 0.00 67 1015.5
20260903011508 85 218 0.0 0.0 0.00 0.00 0.00 65 1015.4
20260903010007 85 159 0.0 0.0 0.00 0.00 0.00 66 1015.2
20260903004513 86 227 0.0 0.0 0.00 0.00 0.00 65 1015.1
20260903003002 86 236 0.0 0.0 0.00 0.00 0.00 63 1015.0
20260903001610 87 229 0.0 0.0 0.00 0.00 0.00 62 1015.0
20260903000059 89 229 0.0 0.0 0.00 0.00 0.00 60 1014.9
20260902234556 90 229 0.0 0.0 0.00 0.00 0.00 55 1015.0
20260902233052 91 290 0.0 0.0 0.00 0.00 0.00 55 1014.9
20260902231549 92 281 0.0 0.0 0.00 0.00 0.00 54 1015.0
20260902230048 93 297 0.0 0.0 0.00 0.00 0.00 52 1015.1
20260902224546 93 281 0.0 0.0 0.00 0.00 0.00 51 1015.1
20260902223045 93 270 0.0 2.0 0.00 0.00 0.00 51 1015.1
20260902221543 94 301 0.0 0.0 0.00 0.00 0.00 50 1015.2
20260902220048 94 115 0.0 0.0 0.00 0.00 0.00 49 1015.1
20260902214543 94 238 0.0 6.0 0.00 0.00 0.00 48 1015.2
20260902213037 94 314 0.0 0.0 0.00 0.00 0.00 49 1015.2
20260902211533 94 340 0.0 0.0 0.00 0.00 0.00 48 1015.2
20260902210041 94 294 0.0 2.0 0.00 0.00 0.00 50 1015.4
20260902204519 94 281 0.0 0.0 0.00 0.00 0.00 46 1015.4
20260902203014 94 255 0.0 5.0 0.00 0.00 0.00 48 1015.6
20260902201511 94 289 0.0 0.0 0.00 0.00 0.00 48 1015.6
20260902200010 93 234 0.0 6.0 0.00 0.00 0.00 48 1015.7
20260902194505 94 297 0.0 4.0 0.00 0.00 0.00 49 1015.9
20260902193100 93 288 0.0 0.0 0.00 0.00 0.00 48 1016.1
20260902191602 92 309 0.0 0.0 0.00 0.00 0.00 50 1016.2
20260902190052 92 313 0.0 0.0 0.00 0.00 0.00 50 1016.4
20260902184547 93 293 0.0 6.0 0.00 0.00 0.00 51 1016.5
20260902183047 92 273 0.0 8.0 0.00 0.00 0.00 52 1016.7
20260902181540 93 269 0.0 0.0 0.00 0.00 0.00 51 1016.7
20260902180046 91 316 0.0 0.0 0.00 0.00 0.00 52 1016.8
20260902174532 92 242 0.0 6.0 0.00 0.00 0.00 51 1016.9
20260902173028 92 279 0.0 1.0 0.00 0.00 0.00 53 1017.1
20260902171525 91 281 0.0 0.0 0.00 0.00 0.00 53 1017.1
20260902170020 91 268 0.0 8.0 0.00 0.00 0.00 52 1017.2
20260902164515 92 136 0.0 0.0 0.00 0.00 0.00 52 1017.4
20260902163015 92 172 0.0 0.0 0.00 0.00 0.00 53 1017.5
20260902161510 91 266 0.0 0.0 0.00 0.00 0.00 56 1017.5
20260902160008 90 195 0.0 1.0 0.00 0.00 0.00 57 1017.6
20260902154601 90 288 0.0 0.0 0.00 0.00 0.00 60 1017.8
20260902154500 89 303 0.0 0.0 0.00 0.00 0.00 59 1017.8
20260902153056 89 224 0.0 0.0 0.00 0.00 0.00 62 1017.8
20260902151558 88 289 0.0 1.0 0.00 0.00 0.00 63 1017.9
20260902144558 86 289 0.0 0.0 0.00 0.00 0.00 66 1017.9
20260902143041 86 278 0.0 0.0 0.00 0.00 0.00 70 1017.8
20260902141539 84 270 0.0 0.0 0.00 0.00 0.00 71 1017.8
20260902134534 82 297 0.0 0.0 0.00 0.00 0.00 74 1017.8
20260902133027 82 275 0.0 0.0 0.00 0.00 0.00 73 1017.8
20260902131527 82 255 0.0 0.0 0.00 0.00 0.00 73 1017.8
20260902124526 79 134 0.0 0.0 0.00 0.00 0.00 79 1017.7
20260902123018 78 218 0.0 0.0 0.00 0.00 0.00 81 1017.6
20260902121513 77 230 0.0 0.0 0.00 0.00 0.00 82 1017.5
20260902114506 0 0.0 0.0 0.00 0.00 0.00 1017.3
20260902113002 0 0.0 0.0 0.00 0.00 0.00 1017.2
20260902111558 0 0.0 0.0 0.00 0.00 0.00 1017.0
20260902104552 0 0.0 0.0 0.00 0.00 0.00 1017.0
20260902103047 -90 167 0.0 0.0 0.00 0.00 0.00 86 1017.0
20260902101546 74 160 0.0 0.0 0.00 0.00 0.00 86 1016.9
20260902094546 75 148 0.0 0.0 0.00 0.00 0.00 86 1016.9
20260902093045 74 206 0.0 0.0 0.00 0.00 0.00 87 1016.9
20260902091552 74 160 0.0 0.0 0.00 0.00 0.00 87 1016.9
20260902084542 74 153 0.0 0.0 0.00 0.00 0.00 87 1016.5
20260902083042 74 152 0.0 0.0 0.00 0.00 0.00 87 1016.3
20260902081540 75 205 0.0 0.0 0.00 0.00 0.00 86 1016.3
20260902074537 76 216 0.0 0.0 0.00 0.00 0.00 84 1016.2
20260902073037 76 216 0.0 0.0 0.00 0.00 0.00 83 1016.2
20260902071534 77 216 0.0 0.0 0.00 0.00 0.00 81 1016.1
20260902064531 77 79 0.0 0.0 0.00 0.00 0.00 80 1016.1
20260902063036 77 227 0.0 0.0 0.00 0.00 0.00 80 1016.1
20260902061544 77 199 0.0 0.0 0.00 0.00 0.00 81 1016.1
20260902054534 78 216 0.0 0.0 0.00 0.00 0.00 80 1016.3
20260902053029 78 216 0.0 0.0 0.00 0.00 0.00 80 1016.2
20260902051528 78 216 0.0 0.0 0.00 0.00 0.00 79 1016.4
20260902044526 79 216 0.0 0.0 0.00 0.00 0.00 77 1016.2
20260902043032 79 224 0.0 0.0 0.00 0.00 0.00 77 1016.2
20260902041524 79 224 0.0 0.0 0.00 0.00 0.00 77 1016.3
20260902034521 80 191 0.0 0.0 0.00 0.00 0.00 76 1016.3
20260902033042 80 191 0.0 0.0 0.00 0.00 0.00 75 1016.3
20260902031517 81 159 0.0 0.0 0.00 0.00 0.00 74 1016.3
20260902024518 81 195 0.0 0.0 0.00 0.00 0.00 73 1016.3
20260902023014 82 165 0.0 0.0 0.00 0.00 0.00 72 1016.3
20260902021523 82 205 0.0 0.0 0.00 0.00 0.00 72 1016.3
20260902014510 82 186 0.0 0.0 0.00 0.00 0.00 70 1016.2